KINEIS-2D

Last updated on Thu Aug 20 2026 00:02:53 GMT+0000 (Coordinated Universal Time)

1 62930U 25028C 26231.37937886 .00001266 00000+0 19183-3 0 9991 2 62930 97.9240 282.5996 0003471 29.1260 331.0143 14.75852251 82037
UTC large
Height (km)
Speed (km/s)
/
Latitude / Longitude
Inclination (degrees)
Orbital Period (minutes)
Azimuth
Elevation
Range (km)
Doppler Factor

Next 0 passes for location: London (51.5072 / 0.1276)

No passes found over London.
KINEIS-2D